Weather History for Pellston, MI

Change the Weather History Date:

Monday, November 4, 2013

  Actual Average Record
Temperature  
Mean Temperature 42 °F -  
Max Temperature 50 °F 45 °F 73 °F (1964)
Min Temperature 33 °F 30 °F 10 °F (1966)
Degree Days  
Heating Degree Days 24    
Moisture  
Dew Point 27 °F    
Average Humidity 59    
Maximum Humidity 82    
Minimum Humidity 38    
Precipitation  
Precipitation 0.00 in - - ()
Sea Level Pressure  
Sea Level Pressure 30.32 in    
Wind  
Wind Speed 11 mph (SSE)    
Max Wind Speed 17 mph    
Max Gust Speed 26 mph    
Visibility 10 miles    
Events      
Averages and records for this station are not official NWS values.
T = Trace of Precipitation, MM = Missing Value Source: NWS Daily Summary

Daily Weather History Graph

Daily Weather History Graph

Search for Another Location

Airport:

Trip Planner

Search our weather history database for the weather conditions in past years. The results will help you decide how hot, cold, wet, or windy it might be!

Date:

Astronomy

Nov. 04, 2013 Rise Set
Actual Time 7:23 AM EST 5:21 PM EST
Civil Twilight 6:52 AM EST 5:52 PM EST
Nautical Twilight 6:16 AM EST 6:27 PM EST
Astronomical Twilight 5:42 AM EST 7:02 PM EST
Moon 8:36 AM EST (11/4) 6:21 PM EST (11/4)
Length of Visible Light 11h 00m
Length of Day
9h 58m
New Moon, 2% of the Moon is Illuminated
Nov 4
New Moon
Nov 10
First Quarter
Nov 17
Full
Nov 25
Last Quarter
Dec 2
New

Hourly Weather History & Observations

Time (EST) Temp. Windchill Dew Point Humidity Pressure Visibility Wind Dir Wind Speed Gust Speed Precip Events Conditions
12:54 AM 33.1 °F 28.7 °F 28.0 °F 82% 30.43 in 10.0 mi SSE 4.6 mph - N/A   Clear
1:54 AM 34.0 °F 27.2 °F 28.9 °F 82% 30.43 in 10.0 mi SSE 8.1 mph - N/A   Clear
2:54 AM 35.1 °F 29.3 °F 30.0 °F 82% 30.43 in 10.0 mi SSE 6.9 mph - N/A   Clear
3:54 AM 35.1 °F 27.4 °F 28.9 °F 78% 30.43 in 10.0 mi SSE 10.4 mph - N/A   Clear
4:54 AM 35.1 °F 27.9 °F 28.9 °F 78% 30.43 in 10.0 mi SSE 9.2 mph - N/A   Clear
5:54 AM 35.1 °F 27.4 °F 28.9 °F 78% 30.43 in 10.0 mi SSE 10.4 mph - N/A   Clear
6:54 AM 35.1 °F 27.9 °F 28.0 °F 76% 30.42 in 10.0 mi SE 9.2 mph - N/A   Clear
7:54 AM 36.0 °F 28.0 °F 28.0 °F 73% 30.42 in 10.0 mi SSE 11.5 mph - N/A   Mostly Cloudy
8:54 AM 37.9 °F 28.5 °F 28.9 °F 70% 30.41 in 10.0 mi SE 17.3 mph 20.7 mph N/A   Overcast
9:54 AM 39.0 °F 30.6 °F 30.0 °F 70% 30.38 in 10.0 mi SSE 15.0 mph 20.7 mph N/A   Clear
10:54 AM 43.0 °F 35.7 °F 30.0 °F 60% 30.38 in 10.0 mi SSE 15.0 mph 21.9 mph N/A   Clear
11:54 AM 45.0 °F 37.6 °F 30.0 °F 56% 30.35 in 10.0 mi SE 17.3 mph 24.2 mph N/A   Clear
12:54 PM 46.9 °F - 28.9 °F 50% 30.32 in 10.0 mi SSE 17.3 mph 25.3 mph N/A   Clear
1:54 PM 50.0 °F - 30.0 °F 46% 30.27 in 10.0 mi SE 17.3 mph 26.5 mph N/A   Clear
2:54 PM 50.0 °F - 25.0 °F 38% 30.27 in 10.0 mi South 16.1 mph 23.0 mph N/A   Clear
3:54 PM 48.9 °F - 25.0 °F 39% 30.25 in 10.0 mi SSE 16.1 mph 21.9 mph N/A   Clear
4:54 PM 46.9 °F - 25.0 °F 42% 30.22 in 10.0 mi SE 13.8 mph 21.9 mph N/A   Partly Cloudy
5:54 PM 46.0 °F 40.2 °F 24.1 °F 42% 30.21 in 10.0 mi SSE 12.7 mph 24.2 mph N/A   Clear
6:54 PM 45.0 °F 38.5 °F 24.1 °F 44% 30.20 in 10.0 mi SSE 13.8 mph 21.9 mph N/A   Mostly Cloudy
7:54 PM 45.0 °F 38.5 °F 23.0 °F 42% 30.20 in 10.0 mi SSE 13.8 mph 20.7 mph N/A   Overcast
8:54 PM 44.1 °F 37.7 °F 24.1 °F 45% 30.20 in 10.0 mi SSE 12.7 mph - N/A   Overcast
9:54 PM 44.1 °F 38.6 °F 25.0 °F 47% 30.21 in 10.0 mi SSE 10.4 mph - N/A   Overcast
10:54 PM 44.1 °F 39.0 °F 26.1 °F 49% 30.20 in 10.0 mi SE 9.2 mph - N/A   Overcast
11:54 PM 44.1 °F 40.8 °F 28.9 °F 55% 30.18 in 10.0 mi SSE 5.8 mph - 0.00 in   Overcast